Home   Weather   Bretten   Past weeks

Flag for Germany Past Weather in Bretten, Baden-Württemberg, Germany — Yesterday and Last 2 Weeks

Now
57 °F

Passing clouds.


Feels Like: 57 °F
Forecast: 65 / 82 °F
Wind: 2 mph from East

Location: Stuttgart-Echterdingen

Current Time: Jul 21, 2017 at 4:58:05 am

Latest Report: Jul 21, 2017 at 4:20 am


Visibility: 1 mi

Pressure: 29.98 "Hg

Humidity: 100%

Dew Point: 57 °F

Location of BrettenLocation

Past Weather in Bretten — Graph

°F

Bretten Temperature Yesterday

Maximum temperature yesterday: 73 °F (at 3:50 pm)
Minimum temperature yesterday: 63 °F (at 1:50 am)
Average temperature yesterday: 67 °F

High & Low Weather Summary for the Past Weeks

 TemperatureHumidityPressure
High91 °F (Jul 19, 3:20 pm)100% (Jul 11, 12:50 am)30.30 "Hg (Jul 11, 12:50 am)
Low50 °F (Jul 16, 3:50 am)29% (Jul 19, 4:20 pm)29.83 "Hg (Jul 10, 3:50 am)
Average69 °F69%30.04 "Hg
* Reported Jul 6 3:20 am — Jul 21 3:31 am, Bretten. Weather by CustomWeather, © 2017

Note: Actual official high and low records may vary slightly from our data, if they occured in-between our weather recording intervals... More about our weather records

Advertising

Bretten Weather History for the Previous 24 Hours

Scroll right to see more
 ConditionsComfort  
Time TempWeatherWind HumidityBarometerVisibility
3:31 am
Fri, Jul 21
59 °FPassing clouds.2 mph94%29.98 "Hg1 mi
2:50 am61 °FFog.1 mph94%29.98 "HgN/A
2:20 am61 °FFog.No wind94%29.98 "HgN/A
1:50 am61 °FFog.1 mph100%29.98 "HgN/A
1:20 am63 °FClear.1 mph94%29.98 "Hg10 mi
12:58 am63 °FClear.2 mph94%29.98 "Hg10 mi
12:20 am63 °FClear.1 mph94%29.98 "Hg10 mi
11:50 pm
Thu, Jul 20
63 °FFog.1 mph100%29.98 "HgN/A
11:20 pm63 °FFog.1 mph100%29.98 "HgN/A
10:50 pm63 °FPassing clouds.2 mph100%29.98 "HgN/A
10:20 pm64 °FPassing clouds.1 mph94%29.98 "HgN/A
9:50 pm64 °FPassing clouds.2 mph94%29.98 "HgN/A
9:20 pm66 °FPassing clouds.2 mph88%29.95 "HgN/A
8:50 pm66 °FBroken clouds.1 mph88%29.95 "HgN/A
8:20 pm66 °FScattered clouds.5 mph88%29.95 "HgN/A
7:50 pm66 °FPartly sunny.5 mph88%29.95 "HgN/A
7:20 pm68 °FScattered clouds.3 mph78%29.95 "HgN/A
6:50 pm64 °FThundershowers. Scattered clouds.2 mph94%29.92 "HgN/A
6:32 pm63 °FMild.9 mph88%29.95 "Hg3 mi
6:20 pm66 °FStrong thunderstorms. Partly sunny.35 mph73%29.95 "Hg1 mi
5:50 pm73 °FScattered showers. Partly sunny.6 mph69%29.92 "HgN/A
5:20 pm73 °FScattered clouds.6 mph69%29.92 "HgN/A
4:50 pm72 °FSprinkles. Scattered clouds.5 mph78%29.95 "HgN/A
4:20 pm73 °FScattered clouds.6 mph74%29.95 "HgN/A
3:50 pm73 °FScattered clouds.5 mph74%29.95 "HgN/A
3:20 pm70 °FScattered clouds.2 mph83%29.95 "HgN/A
2:50 pm68 °FScattered showers. Broken clouds.2 mph88%29.95 "HgN/A
2:20 pm66 °FLight rain. Partly sunny.3 mph88%29.98 "HgN/A
1:50 pm64 °FLight rain. Broken clouds.6 mph94%29.95 "HgN/A
1:28 pm64 °FLight rain. Partly sunny.7 mph94%29.98 "HgN/A
1:20 pm64 °FRain. More clouds than sun.6 mph94%29.98 "Hg6 mi
12:50 pm66 °FLight rain. More clouds than sun.6 mph88%29.98 "HgN/A
12:20 pm64 °FLight rain. Overcast.6 mph94%29.95 "HgN/A
11:50 am66 °FRain. Overcast.6 mph88%29.98 "HgN/A
11:20 am70 °FRain. Overcast.6 mph78%29.95 "HgN/A
10:50 am72 °FLight rain. Partly sunny.5 mph69%29.95 "HgN/A
10:20 am72 °FSunny.5 mph69%29.92 "Hg10 mi
9:50 am72 °FPassing clouds.6 mph69%29.92 "HgN/A
9:20 am72 °FPassing clouds.5 mph69%29.92 "HgN/A
8:50 am70 °FPassing clouds.3 mph73%29.92 "HgN/A
8:20 am68 °FSunny.1 mph78%29.92 "Hg10 mi
7:50 am66 °FSunny.1 mph83%29.92 "Hg10 mi
7:20 am66 °FPassing clouds.3 mph83%29.92 "HgN/A
6:50 am66 °FPassing clouds.3 mph83%29.92 "HgN/A
6:20 am66 °FPassing clouds.5 mph83%29.92 "HgN/A
5:50 am64 °FPassing clouds.3 mph88%29.89 "HgN/A
5:20 am64 °FPassing clouds.2 mph88%29.89 "HgN/A
4:50 am64 °FPassing clouds.1 mph88%29.89 "HgN/A
4:20 am64 °FPartly cloudy.2 mph88%29.92 "HgN/A
Weather by CustomWeather, © 2017

See weather overviewHow to use our weather pages